GW2569 Weather Reports


Display with metric or nautical units.
time (UTC)temp
F
wind
direction
speed
MPH
gust
MPH
rain 1hr
in
rain 24hr
in
rain mn
in
humidity
%
barometer
mb
20260902042041 85 57 5.0 11.0 0.00 0.00 0.00 89 1015.6
20260902041601 85 32 3.0 11.0 0.00 0.00 0.00 89 1015.6
20260902041041 85 51 3.0 11.0 0.00 0.00 0.00 89 1015.5
20260902040540 85 24 3.0 11.0 0.00 0.00 0.00 89 1015.5
20260902040100 85 59 4.0 11.0 0.00 0.00 0.00 89 1015.6
20260902035542 85 107 5.0 11.0 0.00 0.00 0.00 89 1015.5
20260902035037 85 36 6.0 12.0 0.00 0.00 0.00 88 1015.4
20260902034557 86 74 4.0 12.0 0.00 0.00 0.00 88 1015.3
20260902034040 86 9 3.0 12.0 0.00 0.00 0.00 88 1015.2
20260902033540 86 32 6.0 12.0 0.00 0.00 0.00 88 1015.1
20260902033102 86 85 3.0 13.0 0.00 0.00 0.00 88 1015.0
20260902032540 86 16 6.0 13.0 0.00 0.00 0.00 87 1015.1
20260902032040 86 72 5.0 13.0 0.00 0.00 0.00 87 1015.0
20260902031613 86 59 5.0 13.0 0.00 0.00 0.00 87 1014.9
20260902031041 87 55 4.0 11.0 0.00 0.00 0.00 86 1014.7
20260902030537 87 28 5.0 11.0 0.00 0.00 0.00 86 1014.6
20260902030056 87 57 5.0 10.0 0.00 0.00 0.00 86 1014.5
20260902025540 87 46 3.0 12.0 0.00 0.00 0.00 85 1014.4
20260902025044 87 73 4.0 12.0 0.00 0.00 0.00 85 1014.3
20260902024559 87 78 4.0 12.0 0.00 0.00 0.00 85 1014.4
20260902024037 88 46 4.0 11.0 0.00 0.00 0.00 85 1014.3
20260902023540 88 86 3.0 10.0 0.00 0.00 0.00 84 1014.3
20260902023105 88 24 4.0 8.0 0.00 0.00 0.00 83 1014.2
20260902022539 88 85 3.0 10.0 0.00 0.00 0.00 83 1014.2
20260902022039 89 50 5.0 11.0 0.00 0.00 0.00 83 1014.1
20260902021612 89 70 4.0 11.0 0.00 0.00 0.00 82 1014.1
20260902021043 89 74 3.0 11.0 0.00 0.00 0.00 82 1014.1
20260902020541 89 88 5.0 10.0 0.00 0.00 0.00 81 1014.0
20260902020117 90 67 4.0 10.0 0.00 0.00 0.00 81 1013.9
20260902015543 90 50 4.0 10.0 0.00 0.00 0.00 81 1013.7
20260902015040 90 79 3.0 10.0 0.00 0.00 0.00 81 1013.7
20260902014600 90 78 3.0 11.0 0.00 0.00 0.00 81 1013.6
20260902014040 90 84 5.0 11.0 0.00 0.00 0.00 80 1013.6
20260902013538 90 92 4.0 11.0 0.00 0.00 0.00 80 1013.5
20260902013102 90 67 5.0 11.0 0.00 0.00 0.00 80 1013.4
20260902012540 91 73 5.0 11.0 0.00 0.00 0.00 80 1013.2
20260902012040 91 44 4.0 10.0 0.00 0.00 0.00 80 1013.2
20260902011557 91 38 6.0 13.0 0.00 0.00 0.00 79 1013.0
20260902011040 92 39 5.0 13.0 0.00 0.00 0.00 79 1013.0
20260902010541 92 59 4.0 12.0 0.00 0.00 0.00 79 1013.0
20260902010054 92 30 5.0 12.0 0.00 0.00 0.00 79 1013.0
20260902005539 92 94 3.0 9.0 0.00 0.00 0.00 79 1012.9
20260902005040 92 86 3.0 9.0 0.00 0.00 0.00 79 1013.0
20260902004605 92 85 2.0 8.0 0.00 0.00 0.00 78 1012.8
20260902004041 92 74 3.0 8.0 0.00 0.00 0.00 78 1012.7
20260902003540 92 59 1.0 9.0 0.00 0.00 0.00 79 1012.6
20260902003108 92 0 2.0 9.0 0.00 0.00 0.00 80 1012.5
20260902002539 93 352 1.0 9.0 0.00 0.00 0.00 80 1012.4
20260902002040 93 0 1.0 9.0 0.00 0.00 0.00 81 1012.4
20260902001559 93 137 4.0 9.0 0.00 0.00 0.00 80 1012.3
20260902001040 93 355 5.0 10.0 0.00 0.00 0.00 80 1012.3
20260902000541 93 307 1.0 10.0 0.00 0.00 0.00 79 1012.3
20260902000057 94 51 4.0 10.0 0.00 0.00 0.00 79 1012.2
20260901235541 94 97 3.0 11.0 0.00 0.00 0.00 79 1012.1
20260901235040 94 320 6.0 11.0 0.00 0.00 0.00 78 1012.1
20260901234602 95 26 5.0 10.0 0.00 0.00 0.00 77 1012.0
20260901234043 95 5 3.0 8.0 0.00 0.00 0.00 77 1011.9
20260901233540 96 352 4.0 11.0 0.00 0.00 0.00 76 1011.9
20260901233104 97 62 2.0 11.0 0.00 0.00 0.00 74 1011.9
20260901232540 97 46 6.0 11.0 0.00 0.00 0.00 68 1011.8
20260901232040 97 38 5.0 10.0 0.00 0.00 0.00 68 1011.8
20260901231601 98 93 5.0 10.0 0.00 0.00 0.00 67 1011.8
20260901231039 98 118 5.0 12.0 0.00 0.00 0.00 67 1011.7
20260901230541 98 0 3.0 13.0 0.00 0.00 0.00 67 1011.7
20260901230105 98 84 6.0 14.0 0.00 0.00 0.00 67 1011.7
20260901225541 98 82 7.0 14.0 0.00 0.00 0.00 66 1011.6
20260901225040 98 117 6.0 12.0 0.00 0.00 0.00 66 1011.8
20260901224556 98 53 4.0 12.0 0.00 0.00 0.00 67 1011.7
20260901224040 98 66 5.0 12.0 0.00 0.00 0.00 67 1011.7
20260901223540 98 80 7.0 16.0 0.00 0.00 0.00 66 1011.8
20260901223108 98 48 6.0 16.0 0.00 0.00 0.00 66 1011.9
20260901222538 98 17 6.0 13.0 0.00 0.00 0.00 66 1011.9
20260901222041 98 71 6.0 13.0 0.00 0.00 0.00 67 1011.9
20260901221558 98 53 7.0 13.0 0.00 0.00 0.00 67 1012.0
20260901221040 99 109 6.0 13.0 0.00 0.00 0.00 66 1012.0
20260901220540 98 51 6.0 13.0 0.00 0.00 0.00 68 1012.0
20260901220125 98 82 7.0 13.0 0.00 0.00 0.00 68 1011.9
20260901215540 98 44 5.0 13.0 0.00 0.00 0.00 68 1012.0
20260901215041 98 63 7.0 13.0 0.00 0.00 0.00 68 1012.1
20260901214559 99 59 7.0 13.0 0.00 0.00 0.00 67 1012.2
20260901214040 99 95 4.0 15.0 0.00 0.00 0.00 67 1012.2
20260901213540 98 67 6.0 15.0 0.00 0.00 0.00 68 1012.2
20260901213108 99 31 6.0 15.0 0.00 0.00 0.00 68 1012.1
20260901212539 98 78 5.0 11.0 0.00 0.00 0.00 68 1012.1
20260901212040 98 352 5.0 12.0 0.00 0.00 0.00 68 1012.1
20260901211556 98 85 4.0 13.0 0.00 0.00 0.00 69 1012.1
20260901211042 98 106 7.0 13.0 0.00 0.00 0.00 69 1012.1
20260901210540 98 94 4.0 12.0 0.00 0.00 0.00 69 1012.1
20260901210055 98 99 5.0 13.0 0.00 0.00 0.00 69 1012.2
20260901205539 98 115 5.0 13.0 0.00 0.00 0.00 68 1012.2
20260901205037 99 88 7.0 13.0 0.00 0.00 0.00 68 1012.2
20260901204601 99 116 5.0 12.0 0.00 0.00 0.00 68 1012.3
20260901204041 99 128 5.0 12.0 0.00 0.00 0.00 68 1012.4
20260901203540 99 38 7.0 12.0 0.00 0.00 0.00 68 1012.4
20260901203100 99 55 3.0 13.0 0.00 0.00 0.00 69 1012.4
20260901202540 99 49 5.0 13.0 0.00 0.00 0.00 68 1012.4
20260901202039 98 80 6.0 13.0 0.00 0.00 0.00 69 1012.6
20260901201602 98 60 7.0 13.0 0.00 0.00 0.00 69 1012.6
20260901201041 98 74 4.0 12.0 0.00 0.00 0.00 69 1012.6
20260901200544 99 69 5.0 13.0 0.00 0.00 0.00 70 1012.8
20260901195540 98 69 6.0 13.0 0.00 0.00 0.00 70 1012.9
20260901195040 98 76 3.0 12.0 0.00 0.00 0.00 71 1013.0
20260901194607 97 71 6.0 12.0 0.00 0.00 0.00 71 1013.2
20260901194043 97 88 7.0 12.0 0.00 0.00 0.00 71 1013.2
20260901193540 97 84 6.0 12.0 0.00 0.00 0.00 71 1013.4
20260901193100 97 132 3.0 14.0 0.00 0.00 0.00 72 1013.5
20260901192540 97 25 2.0 14.0 0.00 0.00 0.00 72 1013.6
20260901192042 97 123 6.0 14.0 0.00 0.00 0.00 73 1013.7
20260901191616 97 91 4.0 13.0 0.00 0.00 0.00 73 1013.8
20260901191039 97 48 4.0 10.0 0.00 0.00 0.00 73 1013.8
20260901190543 96 42 3.0 10.0 0.00 0.00 0.00 74 1013.9
20260901190104 96 15 2.0 10.0 0.00 0.00 0.00 75 1014.0
20260901185539 95 152 5.0 12.0 0.00 0.00 0.00 75 1014.0
20260901185040 96 81 5.0 12.0 0.00 0.00 0.00 75 1014.1
20260901184613 96 110 5.0 11.0 0.00 0.00 0.00 75 1014.2
20260901184039 96 113 2.0 11.0 0.00 0.00 0.00 76 1014.4
20260901183539 96 85 6.0 11.0 0.00 0.00 0.00 76 1014.4
20260901183058 96 157 6.0 11.0 0.00 0.00 0.00 76 1014.5
20260901182540 95 84 2.0 10.0 0.00 0.00 0.00 76 1014.5
20260901182040 96 71 3.0 10.0 0.00 0.00 0.00 74 1014.6
20260901181600 95 156 3.0 11.0 0.00 0.00 0.00 74 1014.6
20260901181040 94 47 4.0 11.0 0.00 0.00 0.00 75 1014.6
20260901180540 94 119 3.0 10.0 0.00 0.00 0.00 75 1014.8
20260901180058 96 103 3.0 8.0 0.00 0.00 0.00 74 1014.7
20260901175541 95 76 1.0 11.0 0.00 0.00 0.00 74 1014.8
20260901175039 94 71 2.0 11.0 0.00 0.00 0.00 75 1014.9
20260901174603 94 310 1.0 8.0 0.00 0.00 0.00 75 1014.9
20260901174040 94 104 3.0 8.0 0.00 0.00 0.00 75 1015.0
20260901173539 93 0 2.0 7.0 0.00 0.00 0.00 76 1015.0
20260901173102 94 140 1.0 7.0 0.00 0.00 0.00 76 1015.1
20260901172540 94 124 2.0 10.0 0.00 0.00 0.00 75 1015.2
20260901172040 94 0 2.0 10.0 0.00 0.00 0.00 76 1015.3
20260901171612 94 34 4.0 10.0 0.00 0.00 0.00 75 1015.4
20260901171043 93 98 2.0 9.0 0.00 0.00 0.00 76 1015.4
20260901170542 95 134 2.0 9.0 0.00 0.00 0.00 75 1015.5
20260901170106 93 119 1.0 4.0 0.00 0.00 0.00 77 1015.6
20260901165542 92 202 1.0 8.0 0.00 0.00 0.00 78 1015.7
20260901165039 93 115 1.0 8.0 0.00 0.00 0.00 77 1015.7
20260901164608 93 76 5.0 8.0 0.00 0.00 0.00 77 1015.7
20260901164038 92 0 0.0 7.0 0.00 0.00 0.00 78 1015.7
20260901163540 92 200 2.0 9.0 0.00 0.00 0.00 78 1015.8
20260901163059 91 0 0.0 9.0 0.00 0.00 0.00 79 1015.9
20260901162541 91 125 4.0 9.0 0.00 0.00 0.00 79 1016.0
20260901162039 92 194 2.0 7.0 0.00 0.00 0.00 78 1016.1
20260901161616 91 192 1.0 7.0 0.00 0.00 0.00 79 1016.0
20260901161040 91 98 1.0 7.0 0.00 0.00 0.00 79 1015.9
20260901160536 90 59 3.0 7.0 0.00 0.00 0.00 80 1016.0
20260901160117 90 208 2.0 6.0 0.00 0.00 0.00 80 1016.0
20260901155537 90 334 2.0 5.0 0.00 0.00 0.00 80 1016.0
20260901155040 90 89 3.0 5.0 0.00 0.00 0.00 80 1016.1
20260901154603 90 0 2.0 6.0 0.00 0.00 0.00 81 1016.1
20260901154040 89 0 1.0 6.0 0.00 0.00 0.00 82 1016.1
20260901153538 89 80 1.0 6.0 0.00 0.00 0.00 82 1016.0
20260901153113 88 85 0.0 5.0 0.00 0.00 0.00 83 1016.1
20260901152540 88 86 1.0 5.0 0.00 0.00 0.00 85 1016.1
20260901152040 88 0 1.0 6.0 0.00 0.00 0.00 85 1016.1
20260901151605 87 252 2.0 6.0 0.00 0.00 0.00 86 1016.0
20260901151037 87 251 1.0 7.0 0.00 0.00 0.00 86 1016.0
20260901150537 86 196 0.0 7.0 0.00 0.00 0.00 86 1016.1
20260901150109 87 162 2.0 7.0 0.00 0.00 0.00 85 1016.1
20260901145541 87 107 4.0 7.0 0.00 0.00 0.00 85 1016.1
20260901145037 87 133 1.0 6.0 0.00 0.00 0.00 85 1016.2
20260901144608 86 158 1.0 6.0 0.00 0.00 0.00 86 1016.1
20260901144040 85 178 3.0 6.0 0.00 0.00 0.00 86 1016.2
20260901143540 85 0 1.0 6.0 0.00 0.00 0.00 87 1016.1
20260901143133 85 126 3.0 7.0 0.00 0.00 0.00 87 1016.1
20260901142540 85 255 2.0 7.0 0.00 0.00 0.00 88 1016.0
20260901142040 85 213 0.0 7.0 0.00 0.00 0.00 88 1016.0
20260901141606 85 29 3.0 9.0 0.00 0.00 0.00 89 1016.1
20260901141040 84 131 3.0 9.0 0.00 0.00 0.00 89 1016.1
20260901140539 84 176 3.0 8.0 0.00 0.00 0.00 89 1016.0
20260901140104 84 72 2.0 8.0 0.00 0.00 0.00 90 1016.0
20260901135541 84 121 3.0 8.0 0.00 0.00 0.00 91 1015.9
20260901135040 83 70 2.0 7.0 0.00 0.00 0.00 92 1015.8
20260901134558 83 117 3.0 7.0 0.00 0.00 0.00 91 1015.8
20260901134036 83 132 1.0 7.0 0.00 0.00 0.00 92 1015.8
20260901133540 83 119 3.0 7.0 0.00 0.00 0.00 92 1015.6
20260901133105 83 151 3.0 8.0 0.00 0.00 0.00 92 1015.7
20260901132537 83 90 3.0 8.0 0.00 0.00 0.00 92 1015.4
20260901132041 83 101 1.0 9.0 0.00 0.00 0.00 93 1015.4
20260901131601 82 85 4.0 9.0 0.00 0.00 0.00 93 1015.4
20260901131040 82 89 4.0 9.0 0.00 0.00 0.00 94 1015.2
20260901130538 82 99 4.0 8.0 0.00 0.00 0.00 94 1015.3
20260901130107 81 129 2.0 8.0 0.00 0.00 0.00 94 1015.2
20260901125540 81 82 2.0 7.0 0.00 0.00 0.00 94 1015.2
20260901125040 81 102 3.0 7.0 0.00 0.00 0.00 95 1015.1
20260901124605 81 115 1.0 4.0 0.00 0.00 0.00 95 1015.1
20260901124043 81 99 1.0 4.0 0.00 0.00 0.00 95 1015.0
20260901123540 81 107 2.0 4.0 0.00 0.00 0.00 95 1015.0
20260901123122 81 0 2.0 6.0 0.00 0.00 0.00 95 1014.9
20260901122540 81 105 3.0 6.0 0.00 0.00 0.00 95 1014.9
20260901122039 81 107 1.0 4.0 0.00 0.00 0.00 95 1014.9
20260901121603 80 107 1.0 4.0 0.00 0.00 0.00 95 1015.0
20260901121040 80 103 1.0 3.0 0.00 0.00 0.00 95 1015.0
20260901120539 80 105 1.0 3.0 0.00 0.00 0.00 95 1014.9
20260901120106 80 74 0.0 3.0 0.00 0.00 0.00 96 1015.0
20260901115540 80 0 0.0 3.0 0.00 0.00 0.00 96 1014.9
20260901115043 80 184 0.0 3.0 0.00 0.00 0.00 96 1015.0
20260901114606 80 0 1.0 3.0 0.00 0.00 0.00 96 1014.9
20260901114039 81 131 1.0 3.0 0.00 0.00 0.00 96 1014.9
20260901113539 81 0 0.0 3.0 0.00 0.00 0.00 96 1014.7
20260901113102 81 113 1.0 4.0 0.00 0.00 0.00 96 1014.7
20260901112539 81 146 1.0 4.0 0.00 0.00 0.00 96 1014.6
20260901112040 81 132 1.0 4.0 0.00 0.00 0.00 96 1014.7
20260901111610 81 155 1.0 3.0 0.00 0.00 0.00 96 1014.6
20260901111044 81 135 1.0 3.0 0.00 0.00 0.00 95 1014.6
20260901110540 81 167 0.0 3.0 0.00 0.00 0.00 95 1014.7
20260901110116 81 113 1.0 3.0 0.00 0.00 0.00 95 1014.6
20260901105540 81 107 1.0 4.0 0.00 0.00 0.00 95 1014.5
20260901105043 81 105 1.0 4.0 0.00 0.00 0.00 95 1014.5
20260901104558 81 110 1.0 7.0 0.00 0.00 0.00 95 1014.4
20260901104040 81 80 3.0 8.0 0.00 0.00 0.00 95 1014.3
20260901103540 81 86 1.0 8.0 0.00 0.00 0.00 95 1014.3
20260901103108 81 38 2.0 8.0 0.00 0.00 0.00 95 1014.2
20260901102539 81 47 2.0 6.0 0.00 0.00 0.00 96 1014.2
20260901102040 81 89 1.0 7.0 0.00 0.00 0.00 96 1014.2
20260901101553 81 87 3.0 7.0 0.00 0.00 0.00 96 1014.1
20260901101039 81 63 2.0 6.0 0.00 0.00 0.00 96 1014.2
20260901100540 81 42 2.0 7.0 0.00 0.00 0.00 96 1014.1
20260901100058 81 83 3.0 8.0 0.00 0.00 0.00 96 1014.1
20260901095538 81 104 2.0 8.0 0.00 0.00 0.00 96 1014.0
20260901095038 81 53 2.0 7.0 0.00 0.00 0.00 96 1014.0
20260901094603 81 75 3.0 7.0 0.00 0.00 0.00 96 1014.1
20260901094040 81 104 3.0 6.0 0.00 0.00 0.00 96 1014.1
20260901093541 81 42 2.0 7.0 0.00 0.00 0.00 96 1014.0
20260901093107 81 0 3.0 8.0 0.00 0.00 0.00 96 1014.1
20260901092541 81 52 3.0 8.0 0.00 0.00 0.00 96 1013.9
20260901092040 81 57 3.0 8.0 0.00 0.00 0.00 96 1014.0
20260901091559 81 93 3.0 8.0 0.00 0.00 0.00 97 1014.0
20260901091040 81 73 2.0 8.0 0.00 0.00 0.00 97 1014.0
20260901090540 81 91 2.0 6.0 0.00 0.00 0.00 97 1014.0
20260901090057 81 78 1.0 6.0 0.00 0.00 0.00 97 1014.1
20260901085539 81 28 1.0 5.0 0.00 0.00 0.00 97 1014.2
20260901085039 81 56 2.0 7.0 0.00 0.00 0.00 97 1014.3
20260901084602 81 0 2.0 7.0 0.00 0.00 0.00 97 1014.3
20260901084039 81 0 3.0 7.0 0.00 0.00 0.00 97 1014.4
20260901083540 81 117 1.0 7.0 0.00 0.00 0.00 97 1014.4
20260901083103 81 57 2.0 7.0 0.00 0.00 0.00 97 1014.5
20260901082539 81 77 1.0 8.0 0.00 0.00 0.00 97 1014.5
20260901082040 81 103 3.0 8.0 0.00 0.00 0.00 97 1014.5
20260901081605 81 97 4.0 8.0 0.00 0.00 0.00 96 1014.5
20260901081039 81 102 3.0 7.0 0.00 0.00 0.00 96 1014.6
20260901080540 81 67 3.0 8.0 0.00 0.00 0.00 96 1014.7
20260901080056 81 89 2.0 8.0 0.00 0.00 0.00 96 1014.7
20260901075541 81 90 3.0 8.0 0.00 0.00 0.00 96 1014.9
20260901075040 81 92 3.0 9.0 0.00 0.00 0.00 96 1014.9
20260901074604 81 101 3.0 9.0 0.00 0.00 0.00 96 1014.9
20260901074041 82 47 3.0 9.0 0.00 0.00 0.00 96 1015.0
20260901073540 82 86 3.0 9.0 0.00 0.00 0.00 96 1015.1
20260901073102 82 123 2.0 7.0 0.00 0.00 0.00 96 1015.1
20260901072541 82 70 3.0 8.0 0.00 0.00 0.00 95 1015.1
20260901072042 82 109 3.0 8.0 0.00 0.00 0.00 95 1015.2
20260901071604 82 103 2.0 8.0 0.00 0.00 0.00 95 1015.2
20260901071039 82 78 1.0 6.0 0.00 0.00 0.00 95 1015.2
20260901070539 82 63 1.0 9.0 0.00 0.00 0.00 95 1015.2
20260901070104 82 80 3.0 9.0 0.00 0.00 0.00 95 1015.3
20260901065538 82 109 3.0 8.0 0.00 0.00 0.00 95 1015.4
20260901065038 82 86 3.0 8.0 0.00 0.00 0.00 95 1015.4
20260901064557 82 0 3.0 8.0 0.00 0.00 0.00 95 1015.4
20260901064041 82 85 2.0 9.0 0.00 0.00 0.00 95 1015.4
20260901063539 82 78 3.0 9.0 0.00 0.00 0.00 95 1015.5
20260901063111 82 92 5.0 9.0 0.00 0.00 0.00 95 1015.4
20260901062539 82 88 4.0 9.0 0.00 0.00 0.00 94 1015.5
20260901062038 82 71 4.0 9.0 0.00 0.00 0.00 94 1015.4
20260901061628 82 59 2.0 8.0 0.00 0.00 0.00 94 1015.4
20260901061037 82 55 2.0 9.0 0.00 0.00 0.00 94 1015.4
20260901060539 82 102 3.0 9.0 0.00 0.00 0.00 94 1015.4
20260901055539 82 82 4.0 7.0 0.00 0.00 0.00 93 1015.5
20260901055039 83 64 4.0 9.0 0.00 0.00 0.00 93 1015.5
20260901054608 83 33 4.0 9.0 0.00 0.00 0.00 93 1015.6
20260901054040 83 55 3.0 9.0 0.00 0.00 0.00 93 1015.5
20260901053541 83 55 3.0 8.0 0.00 0.00 0.00 93 1015.5
20260901053107 83 75 4.0 9.0 0.00 0.00 0.00 93 1015.5
20260901052539 83 81 3.0 9.0 0.00 0.00 0.00 92 1015.5
20260901052042 83 59 2.0 8.0 0.00 0.00 0.00 92 1015.6
20260901051603 83 65 3.0 8.0 0.00 0.00 0.00 92 1015.6
20260901051037 83 40 2.0 9.0 0.00 0.00 0.00 92 1015.6
20260901050540 83 79 3.0 9.0 0.00 0.00 0.00 92 1015.6
20260901050108 83 102 4.0 9.0 0.00 0.00 0.00 92 1015.5
20260901045539 84 46 6.0 9.0 0.00 0.00 0.00 91 1015.5
20260901045044 84 61 4.0 8.0 0.00 0.00 0.00 91 1015.5
20260901044611 84 61 2.0 9.0 0.00 0.00 0.00 91 1015.5
20260901044036 84 66 4.0 9.0 0.00 0.00 0.00 91 1015.4
20260901043540 84 57 4.0 8.0 0.00 0.00 0.00 91 1015.4
20260901043059 84 59 2.0 7.0 0.00 0.00 0.00 91 1015.3
20260901042540 84 49 2.0 7.0 0.00 0.00 0.00 91 1015.4